Torna al catalogo

STARLINK-36356

AttivoComunicazioniVLEO
NORAD 68242·PAYLOAD·🇺🇸 United States

Lanciato Mar 17, 2026 da Vandenberg Space Force Base

Loading…

Prossimi Passaggi (prossime 24 ore)

TLE

AggiornatoSource: CelesTrak SupGP

Epoca: Sep 15, 2026, 02:53 UTC

1 68242C 26054L   26258.12062500  .00043298  00000+0  12793-2 0  2585
2 68242  53.1571 135.1263 0001286  85.6753 195.8307 15.34368664    18

Traccia STARLINK-36356 in tempo reale con AllMySat

Download on the App Store